This demonstration page uses our WeatherBlox Daily Observations layout. Learn more.

Hourly Observations for April 24, 2015

Temp ( °F °C ) Dew Point ( °F °C ) Humidity (%) Winds ( mph kmh ) Pressure ( in mb ) Visibility ( mi km ) Precip ( " mm )
12:15 am 00:15 Mostly Cloudy 55 12.5 43 6 65 65 SSE 14 22 29.8 1009 10 16.0934 0 0
12:35 am 00:35 Cloudy 55 12.5 43 6.2 66 66 SSE 9 15 29.77 1008 10 16.0934 0 0
12:55 am 00:55 Cloudy 55 12.5 44 6.5 67 67 S 6 9 29.8 1009 10 16.0934 0 0
1:15 am 01:15 Cloudy 55 13 45 7 67 67 SSE 12 19 29.77 1008 10 16.0934 0 0
1:35 am 01:35 Cloudy 55 13 45 7.3 69 69 SW 3 6 29.8 1009 10 16.0934 0 0
1:55 am 01:55 Cloudy 55 13 46 7.7 70 70 S 7 11 29.77 1008 10 16.0934 0 0
2:15 am 02:15 Partly Cloudy 54 12.4 46 8 75 75 S 12 19 29.77 1008 10 16.0934 0 0
2:35 am 02:35 Mostly Cloudy with Light Drizzle 54 12 47 8.5 79 79 S 12 19 29.77 1008 10 16.0934 0 0
2:55 am 02:55 Partly Cloudy with Light Rain 53 11.6 48 8.7 83 83 S 15 24 29.77 1008 10 16.0934 0 0
3:15 am 03:15 Clear 52 11.2 49 9.2 88 88 SSW 22 35 29.77 1008 10 16.0934 0 0
3:35 am 03:35 Clear 52 11.2 49 9.5 89 89 SSW 18 30 29.71 1006 10 16.0934 0 0
3:55 am 03:55 Partly Cloudy 52 10.9 48 9 88 88 S 14 22 29.68 1005 10 16.0934 0 0
4:15 am 04:15 Clear 51 10.8 48 8.7 87 87 S 13 20 29.65 1004 10 16.0934 0 0
4:35 am 04:35 Clear 51 10.4 47 8.3 87 87 S 14 22 29.65 1004 10 16.0934 0 0
4:55 am 04:55 Clear 49 9.6 46 8 90 90 S 17 28 29.68 1005 10 16.0934 0 0
5:15 am 05:15 Clear 49 9.3 46 7.7 90 90 S 14 22 29.71 1006 10 16.0934 0 0
5:35 am 05:35 Clear 48 9 46 7.6 91 91 S 13 20 29.71 1006 10 16.0934 0 0
5:55 am 05:55 Clear 48 8.7 46 7.5 92 92 S 15 24 29.71 1006 10 16.0934 0 0
6:15 am 06:15 Clear 47 8.5 45 7.4 93 93 SSE 10 17 29.71 1006 10 16.0934 0 0
6:35 am 06:35 Clear 46 8 45 7 93 93 S 6 9 29.71 1006 7 11.26538 0 0
6:55 am 06:55 Sunny with Mist and Fog 46 8 45 7 93 93 S 6 9 29.74 1007 5 8.0467 0 0
7:15 am 07:15 Sunny with Mist and Fog 46 7.9 45 7 94 94 Calm 29.74 1007 5 8.0467 0 0
7:35 am 07:35 Mostly Cloudy with Mist and Fog 46 8 45 7.1 94 94 Calm 29.74 1007 4 6.43736 0 0
7:55 am 07:55 Cloudy with Mist and Fog 47 8.6 46 7.8 95 95 Calm 29.74 1007 5 8.0467 0 0
8:15 am 08:15 Cloudy with Mist and Fog 48 9 47 8.2 95 95 Calm 29.74 1007 1.5 2.41401 0 0
8:35 am 08:35 Cloudy with Fog 49 9.5 48 8.7 95 95 Calm 29.71 1006 0.5 0.80467 0 0
8:55 am 08:55 Cloudy with Fog 50 10 49 9.2 95 95 Calm 29.71 1006 0.5 0.80467 0 0
9:15 am 09:15 Cloudy with Mist and Fog 51 10.7 50 10.1 96 96 S 5 7 29.68 1005 0.75 1.207005 0 0
9:35 am 09:35 Cloudy with Mist and Fog 52 11.1 51 10.5 96 96 S 7 11 29.68 1005 0.75 1.207005 0 0
9:55 am 09:55 Cloudy with Fog 53 11.7 52 11.1 96 96 SSE 6 9 29.68 1005 0.25 0.402335 0 0
10:15 am 10:15 Cloudy with Fog 54 12.2 53 11.6 96 96 S 6 9 29.68 1005 0.25 0.402335 0 0
10:35 am 10:35 Cloudy with Fog 55 12.6 54 12 96 96 S 7 11 29.65 1004 0.25 0.402335 0 0
10:55 am 10:55 Cloudy with Fog 55 13 55 12.5 97 97 S 6 9 29.65 1004 0.5 0.80467 0 0
11:15 am 11:15 Cloudy with Mist and Fog 56 13.6 55 13 96 96 S 7 11 29.65 1004 3 4.82802 0 0
11:35 am 11:35 Cloudy with Mist and Fog 57 13.8 56 13.2 96 96 S 7 11 29.65 1004 4 6.43736 0 0
11:55 am 11:55 Cloudy with Mist and Fog 58 14.5 56 13.1 91 91 SSE 6 9 29.62 1003 5 8.0467 0 0
12:15 pm 12:15 Cloudy 58 14.5 55 13 91 91 S 5 7 29.62 1003 7 11.26538 0 0
12:35 pm 12:35 Cloudy 59 15 55 12.9 87 87 S 6 9 29.62 1003 10 16.0934 0 0
12:55 pm 12:55 Cloudy 59 14.8 55 13 89 89 SSE 3 6 29.62 1003 10 16.0934 0 0
1:15 pm 13:15 Cloudy 60 15.5 55 12.8 84 84 S 3 6 29.56 1001 10 16.0934 0 0
1:35 pm 13:35 Cloudy 61 16.1 55 12.6 80 80 Calm 29.56 1001 10 16.0934 0 0
1:55 pm 13:55 Cloudy 61 16.2 55 12.9 81 81 Calm 29.53 1000 10 16.0934 0 0
2:15 pm 14:15 Cloudy 62 16.9 56 13.4 80 80 ESE 5 7 29.53 1000 10 16.0934 0 0
2:35 pm 14:35 Cloudy 63 17.3 56 13.1 77 77 SE 6 9 29.53 1000 10 16.0934 0 0
2:55 pm 14:55 Partly Cloudy 65 18.5 54 12.3 67 67 SSE 13 20 29.53 1000 10 16.0934 0 0
3:15 pm 15:15 Sunny 65 18.5 54 12.2 67 67 SSE 10 17 29.47 998 10 16.0934 0 0
3:35 pm 15:35 Sunny 65 18.6 54 12.3 67 67 SSE 9 15 29.47 998 10 16.0934 0 0
3:55 pm 15:55 Partly Cloudy 66 18.8 54 12.4 67 67 SE 7 11 29.47 998 10 16.0934 0 0
4:15 pm 16:15 Mostly Cloudy 66 18.8 55 12.5 67 67 ESE 10 17 29.47 998 10 16.0934 0 0
4:35 pm 16:35 Mostly Cloudy 66 19.1 55 12.8 67 67 SE 9 15 29.44 997 10 16.0934 0 0
4:55 pm 16:55 Cloudy 66 18.8 55 12.7 68 68 SE 9 15 29.44 997 10 16.0934 0 0
5:15 pm 17:15 Cloudy 65 18.3 54 12.2 68 68 ESE 10 17 29.47 998 10 16.0934 0 0
5:35 pm 17:35 Mostly Cloudy 66 19.1 55 13 68 68 ESE 13 20 29.44 997 10 16.0934 0 0
5:55 pm 17:55 Mostly Cloudy 66 19 56 13.1 69 69 E 16 26 29.41 996 10 16.0934 0 0
6:15 pm 18:15 Mostly Cloudy 65 18.1 55 12.6 70 70 E 14 22 29.44 997 10 16.0934 0 0
6:35 pm 18:35 Partly Cloudy 63 17.3 55 12.7 75 75 ESE 15 24 29.47 998 10 16.0934 0 0
6:55 pm 18:55 Mostly Cloudy 63 17 55 12.8 76 76 ESE 14 22 29.47 998 10 16.0934 0 0
7:15 pm 19:15 Mostly Cloudy 62 16.5 55 12.7 78 78 ESE 13 20 29.44 997 10 16.0934 0 0
7:35 pm 19:35 Partly Cloudy 62 16.5 55 12.9 79 79 ESE 16 26 29.44 997 10 16.0934 0 0
7:55 pm 19:55 Partly Cloudy 60 15.6 55 12.5 82 82 ESE 14 22 29.44 997 10 16.0934 0 0
8:15 pm 20:15 Partly Cloudy 59 15.2 55 12.7 85 85 E 10 17 29.41 996 10 16.0934 0 0
8:35 pm 20:35 Mostly Cloudy 58 14.6 55 12.7 88 88 E 10 17 29.44 997 10 16.0934 0 0
8:55 pm 20:55 Mostly Cloudy 58 14.6 55 12.6 88 88 ENE 6 9 29.44 997 10 16.0934 0 0
9:15 pm 21:15 Partly Cloudy 57 13.7 54 12.1 90 90 E 7 11 29.47 998 10 16.0934 0 0
9:35 pm 21:35 Partly Cloudy 57 13.7 54 12.3 91 91 E 3 6 29.47 998 7 11.26538 0 0
9:55 pm 21:55 Cloudy 58 14.2 55 12.8 91 91 E 8 13 29.5 999 7 11.26538 0 0
10:15 pm 22:15 Cloudy 58 14.3 55 12.7 90 90 E 9 15 29.5 999 7 11.26538 0 0
10:35 pm 22:35 Cloudy 58 14.2 55 12.7 91 91 E 9 15 29.5 999 7 11.26538 0 0
10:55 pm 22:55 Cloudy 57 14 55 12.6 91 91 E 10 17 29.5 999 7 11.26538 0 0
11:15 pm 23:15 Cloudy with Mist and Fog 57 13.7 55 12.6 93 93 ENE 8 13 29.5 999 4 6.43736 0 0
11:35 pm 23:35 Cloudy with Mist and Fog 56 13.6 55 12.7 94 94 ENE 7 11 29.5 999 4 6.43736 0 0
11:55 pm 23:55 Cloudy with Thunderstorms 56 13.5 55 12.6 94 94 ENE 8 13 29.5 999 2.5 4.02335 0 0

Powered by AerisWeather